Weather History for KUAO - October, 2012

Change the Weather History Date:

Sunday, October 21, 2012

  Actual Average Record
Temperature  
Mean Temperature 45 °F -  
Max Temperature 52 °F - 80 °F (2003)
Min Temperature 40 °F - 34 °F (1997)
Degree Days  
Heating Degree Days 19    
Month to date heating degree days 190  
Since 1 July heating degree days 307  
Cooling Degree Days 0    
Month to date cooling degree days 1  
Year to date cooling degree days 295  
Moisture  
Dew Point 43 °F    
Average Humidity 84    
Maximum Humidity 100    
Minimum Humidity 68    
Precipitation  
Precipitation 0.12 in - 1.47 in (1956)
Month to date precipitation 3.29  
Year to date precipitation 33.26  
Sea Level Pressure  
Sea Level Pressure 29.88 in    
Wind  
Wind Speed 3 mph (SSW)    
Max Wind Speed 14 mph    
Max Gust Speed 18 mph    
Visibility 10 miles    
Events Rain    
T = Trace of Precipitation, MM = Missing Value Source: NWS Daily Summary

Daily Weather History Graph

Daily Weather History Graph

Search for Another Location

Airport or City:

Trip Planner

Search our weather history database for the weather conditions in past years. The results will help you decide how hot, cold, wet, or windy it might be!

Date:

Astronomy

Oct. 21, 2012 Rise Set
Actual Time 7:35 AM PDT 6:14 PM PDT
Civil Twilight 7:05 AM PDT 6:44 PM PDT
Nautical Twilight 6:31 AM PDT 7:18 PM PDT
Astronomical Twilight 5:57 AM PDT 7:53 PM PDT
Moon 2:05 PM PDT (10/21) No Moon Set
Length of Visible Light 11h 38m
Length of Day
10h 38m
Waxing Crescent, 46% of the Moon is Illuminated
Oct 21
Waxing Crescent
Oct 21
First Quarter
Oct 29
Full
Nov 6
Last Quarter
Nov 13
New

Hourly Weather History & Observations

Time (PDT) Temp. Windchill Dew Point Humidity Pressure Visibility Wind Dir Wind Speed Gust Speed Precip Events Conditions
12:53 AM 43.0 °F 41.3 °F 42.1 °F 97% 29.95 in 10.0 mi NW 3.5 mph - N/A   Overcast
1:53 AM 44.1 °F - 43.0 °F 96% 29.94 in 10.0 mi Calm Calm - 0.01 in   Overcast
2:32 AM 44.6 °F - 42.8 °F 93% 29.94 in 9.0 mi Calm Calm - 0.00 in Rain Light Rain
2:53 AM 44.1 °F - 44.1 °F 100% 29.94 in 10.0 mi Calm Calm - 0.02 in Rain Light Rain
3:03 AM 44.6 °F 42.2 °F 42.8 °F 93% 29.93 in 10.0 mi South 4.6 mph - 0.00 in   Overcast
3:10 AM 44.6 °F 42.2 °F 42.8 °F 93% 29.93 in 10.0 mi South 4.6 mph - 0.00 in   Overcast
3:53 AM 43.0 °F 40.3 °F 42.1 °F 97% 29.92 in 10.0 mi SSW 4.6 mph - 0.00 in   Partly Cloudy
4:53 AM 42.1 °F 39.2 °F 41.0 °F 96% 29.91 in 10.0 mi South 4.6 mph - N/A   Clear
5:53 AM 39.9 °F - 39.9 °F 100% 29.92 in 10.0 mi Calm Calm - N/A   Overcast
6:53 AM 42.1 °F - 41.0 °F 96% 29.93 in 10.0 mi Calm Calm - N/A   Mostly Cloudy
7:53 AM 41.0 °F 38.0 °F 41.0 °F 100% 29.93 in 10.0 mi NNW 4.6 mph - N/A   Overcast
8:53 AM 44.1 °F - 43.0 °F 96% 29.92 in 10.0 mi Calm Calm - N/A   Mostly Cloudy
9:53 AM 46.9 °F - 44.1 °F 90% 29.92 in 10.0 mi SSW 6.9 mph - N/A   Scattered Clouds
10:53 AM 48.9 °F - 43.0 °F 80% 29.92 in 10.0 mi SSW 9.2 mph - N/A   Mostly Cloudy
11:06 AM 50.0 °F - 44.6 °F 82% 29.91 in 10.0 mi South 11.5 mph - N/A   Mostly Cloudy
11:37 AM 50.0 °F - 42.8 °F 76% 29.91 in 10.0 mi SSW 6.9 mph - N/A   Overcast
11:53 AM 48.9 °F - 43.0 °F 80% 29.91 in 10.0 mi SSW 8.1 mph - N/A   Overcast
12:10 PM 51.8 °F - 42.8 °F 71% 29.91 in 10.0 mi SSW 12.7 mph 18.4 mph N/A   Mostly Cloudy
12:53 PM 48.0 °F - 43.0 °F 83% 29.91 in 7.0 mi SW 8.1 mph - 0.00 in Rain Light Rain
1:53 PM 48.9 °F - 46.0 °F 90% 29.88 in 10.0 mi Calm Calm - 0.05 in   Mostly Cloudy
2:53 PM 51.1 °F - 44.1 °F 77% 29.86 in 10.0 mi Variable 4.6 mph - N/A   Mostly Cloudy
3:53 PM 51.1 °F - 41.0 °F 68% 29.85 in 10.0 mi SSW 6.9 mph - N/A   Mostly Cloudy
4:53 PM 50.0 °F - 42.1 °F 74% 29.84 in 10.0 mi SW 3.5 mph - N/A   Overcast
5:53 PM 50.0 °F - 43.0 °F 77% 29.82 in 10.0 mi Calm Calm - N/A   Mostly Cloudy
6:53 PM 48.0 °F - 44.1 °F 86% 29.81 in 10.0 mi Calm Calm - N/A   Scattered Clouds
7:53 PM 46.9 °F - 42.1 °F 83% 29.80 in 10.0 mi ENE 4.6 mph - N/A   Overcast
8:53 PM 46.9 °F - 43.0 °F 86% 29.79 in 10.0 mi Calm Calm - 0.00 in Rain Light Rain
9:53 PM 46.0 °F 43.9 °F 44.1 °F 93% 29.78 in 10.0 mi NE 4.6 mph - 0.04 in Rain Light Rain
10:53 PM 45.0 °F - 44.1 °F 97% 29.77 in 10.0 mi Calm Calm - 0.00 in   Overcast
11:53 PM 45.0 °F - 44.1 °F 97% 29.75 in 10.0 mi Calm Calm - N/A   Overcast